Погода в Папулине

Россия / Владимирская область     55°33′31″N   41°45′43″E
В апреле 2022 года жителям России запретили посещать сайт meteo.paraplan.net по решению Генеральной прокуратуры. Аудитория сайта уменьшилась в 10 раз. Владельцы сайта не видят смысла в поддержке погодного сервера в таких условиях. Сайт будет закрыт в октябре.
темп.,
°C
ветер,
м/с
пор.,
м/с
влажн.,
%
обл.,
%
осадки,
мм/ч
давл.,
гПа
погр.,
м
3 октября, пн
пн300:00+13вюв41094100 0.3 1003254
03:00+14юв41095100 0.9 1002323
06:00+14вюв51491100 0.1 1001528
09:00+16юв71577100 0.1 1001871
12:00+16юв81665100 0.0 10011121
15:00+15ю81581100 0.6 10021221
18:00+11ю7147294 0.2 10071191
21:00+10ю6137657 0.2 1010941
4 октября, вт
вт400:00+9ююв613785 0.0 1011692
03:00+9ююв614815 0.0 1012606
06:00+9ююв6148311 0.0 1013536
09:00+12ююв714688 0.0 1013852
12:00+15ю815566 0.0 10141693
15:00+16ююв7125699 0.1 10141868
18:00+13ю61273100 0.6 1014897
21:00+12ююв6138194 1.1 1014805
5 октября, ср
ср500:00+11ююв41190100 2.9 1014525
03:00+11ю51185100 3.4 1014823
06:00+10ю51185100 0.4 1014933
09:00+9ю51186100 1.0 10141316
12:00+9ююз61086100 0.8 10141264
15:00+9ююз6108466 1.1 10141037
18:00+8юз488387 0.1 1015769
21:00+6зюз5989100 0.3 1015656
6 октября, чт
чт600:00+4зюз389177 0.0 1015374
03:00+6з488943 0.2 1016699
06:00+5зюз3790100 0.1 1016402
09:00+6зюз4789100 0.1 1017409
12:00+8зюз3574100 0.1 1017490
15:00+10зюз356017 0.1 10161079
18:00+7юз3686100 0.1 1016289
21:00+7ююз3894100 0.1 1015348
7 октября, пт
пт700:00+9юз41198100 0.9 1013504
03:00+10зюз51195100 0.9 1013522
06:00+11зсз61185100 0.1 1013836
09:00+10зсз61083100 0.1 1015916
12:00+10з61078100 0.1 10171151
15:00+10зюз6127778 0.1 1017942
18:00+9з614825 0.0 1018784
21:00+9з614850 0.0 1019653